Year,Month,Day,Hour,Minute,Value (Times are PST for temperature in C)
2016,06,01,11,04,20.80
2016,06,01,11,05,20.80
2016,06,01,11,06,20.90
2016,06,01,11,07,20.90
2016,06,01,11,08,21.00
2016,06,01,11,09,21.10
2016,06,01,11,10,21.20
2016,06,01,11,11,21.30
2016,06,01,11,12,21.40
2016,06,01,11,13,21.40
2016,06,01,11,14,21.30
2016,06,01,11,15,21.30
2016,06,01,11,16,21.20
2016,06,01,11,17,21.20
2016,06,01,11,18,21.30
2016,06,01,11,19,21.30
2016,06,01,11,20,21.40
2016,06,01,11,21,21.60
2016,06,01,11,22,21.60
2016,06,01,11,23,21.60
2016,06,01,11,24,21.50
2016,06,01,11,25,21.60
2016,06,01,11,26,21.60
2016,06,01,11,27,21.60
2016,06,01,11,28,21.70
2016,06,01,11,29,21.70
2016,06,01,11,30,21.70
2016,06,01,11,31,21.70
2016,06,01,11,32,21.80
2016,06,01,11,33,21.70
2016,06,01,11,34,21.70
2016,06,01,11,35,21.60
2016,06,01,11,36,21.50
2016,06,01,11,37,21.40
2016,06,01,11,38,21.40
2016,06,01,11,39,21.40
2016,06,01,11,40,21.40
2016,06,01,11,41,21.40
2016,06,01,11,42,21.40
2016,06,01,11,43,21.40
2016,06,01,11,44,21.30
2016,06,01,11,45,21.30
2016,06,01,11,46,21.20
2016,06,01,11,47,21.10
2016,06,01,11,48,21.10
2016,06,01,11,49,21.00
2016,06,01,11,50,21.00
2016,06,01,11,51,21.00
2016,06,01,11,52,21.00
2016,06,01,11,53,21.00
2016,06,01,11,54,21.10
2016,06,01,11,55,21.10
2016,06,01,11,56,21.20
2016,06,01,11,57,21.20
2016,06,01,11,58,21.20
2016,06,01,11,59,21.20
2016,06,01,12,00,21.20
2016,06,01,12,01,21.20
2016,06,01,12,02,21.10
2016,06,01,12,03,21.10
2016,06,01,12,04,21.10
2016,06,01,12,05,21.10
2016,06,01,12,06,21.10
2016,06,01,12,07,21.10
2016,06,01,12,08,21.10
2016,06,01,12,09,21.20
2016,06,01,12,10,21.20
2016,06,01,12,11,21.20
2016,06,01,12,12,21.20
2016,06,01,12,13,21.20
2016,06,01,12,14,21.30
2016,06,01,12,15,21.30
2016,06,01,12,16,21.30
2016,06,01,12,17,21.20
2016,06,01,12,18,21.10
2016,06,01,12,19,21.10
2016,06,01,12,20,21.10
2016,06,01,12,21,21.00
2016,06,01,12,22,20.90
2016,06,01,12,23,20.90
2016,06,01,12,24,20.90
2016,06,01,12,25,20.70
2016,06,01,12,26,20.60
2016,06,01,12,27,20.50
2016,06,01,12,28,20.40
2016,06,01,12,29,20.40
2016,06,01,12,30,20.30
2016,06,01,12,31,20.30
2016,06,01,12,32,20.20
2016,06,01,12,33,20.20
2016,06,01,12,34,20.10
2016,06,01,12,35,20.10
2016,06,01,12,36,20.10
2016,06,01,12,37,20.10
2016,06,01,12,38,20.10
2016,06,01,12,39,20.10
2016,06,01,12,40,20.00
2016,06,01,12,41,20.00
2016,06,01,12,42,20.00
2016,06,01,12,43,19.90
2016,06,01,12,44,19.90
2016,06,01,12,45,19.90
2016,06,01,12,46,19.90
2016,06,01,12,47,19.90
2016,06,01,12,48,19.90
2016,06,01,12,49,19.90
2016,06,01,12,50,19.90
2016,06,01,12,51,19.90
2016,06,01,12,52,19.90
2016,06,01,12,53,19.90
2016,06,01,12,54,19.90
2016,06,01,12,55,19.90
2016,06,01,12,56,19.90
2016,06,01,12,57,19.90
2016,06,01,12,58,19.80
2016,06,01,12,59,19.80
2016,06,01,13,00,19.80
2016,06,01,13,01,19.70
2016,06,01,13,02,19.70
2016,06,01,13,03,19.70
2016,06,01,13,04,19.70
2016,06,01,13,05,19.70
2016,06,01,13,06,19.60
2016,06,01,13,07,19.60
2016,06,01,13,08,19.60
2016,06,01,13,09,19.60
2016,06,01,13,10,19.50
2016,06,01,13,11,19.40
2016,06,01,13,12,19.40
2016,06,01,13,13,19.40
2016,06,01,13,14,19.40
2016,06,01,13,15,19.40
2016,06,01,13,16,19.30
2016,06,01,13,17,19.30
2016,06,01,13,18,19.30
2016,06,01,13,19,19.30
2016,06,01,13,20,19.20
2016,06,01,13,21,19.20
2016,06,01,13,22,19.10
2016,06,01,13,23,19.00
2016,06,01,13,24,18.90
2016,06,01,13,25,18.90
2016,06,01,13,26,18.80
2016,06,01,13,27,18.80
2016,06,01,13,28,18.70
2016,06,01,13,29,18.70
2016,06,01,13,30,18.70
2016,06,01,13,31,18.60
2016,06,01,13,32,18.60
2016,06,01,13,33,18.50
2016,06,01,13,34,18.50
2016,06,01,13,35,18.40
2016,06,01,13,36,18.40
2016,06,01,13,37,18.40
2016,06,01,13,38,18.40
2016,06,01,13,39,18.40
2016,06,01,13,40,18.30
2016,06,01,13,41,18.30
2016,06,01,13,42,18.30
2016,06,01,13,43,18.20
2016,06,01,13,44,18.20
2016,06,01,13,45,18.10
2016,06,01,13,46,18.10
2016,06,01,13,47,18.10
2016,06,01,13,48,18.00
2016,06,01,13,49,17.90
2016,06,01,13,50,17.80
2016,06,01,13,51,17.70
2016,06,01,13,52,17.60
2016,06,01,13,53,17.50
2016,06,01,13,54,17.40
2016,06,01,13,55,17.30
2016,06,01,13,56,17.30
2016,06,01,13,57,17.20
2016,06,01,13,58,17.10
2016,06,01,13,59,17.10
2016,06,01,14,00,17.10
2016,06,01,14,01,17.00
2016,06,01,14,02,16.90
2016,06,01,14,03,16.90
2016,06,01,14,04,16.90
2016,06,01,14,05,16.90
2016,06,01,14,06,16.90
2016,06,01,14,07,16.90
2016,06,01,14,08,16.90
2016,06,01,14,09,16.90
2016,06,01,14,10,16.90
2016,06,01,14,11,16.90
2016,06,01,14,12,16.90
2016,06,01,14,13,16.90
2016,06,01,14,14,16.90
2016,06,01,14,15,16.90
2016,06,01,14,16,16.90
2016,06,01,14,17,16.90
2016,06,01,14,18,16.90
2016,06,01,14,19,16.90
2016,06,01,14,20,16.90
2016,06,01,14,21,16.90
2016,06,01,14,22,16.90
2016,06,01,14,23,16.90
2016,06,01,14,24,16.90
2016,06,01,14,25,16.80
2016,06,01,14,26,16.80
2016,06,01,14,27,16.80
2016,06,01,14,28,16.80
2016,06,01,14,29,16.80
2016,06,01,14,30,16.80
2016,06,01,14,31,16.80
2016,06,01,14,32,16.80
2016,06,01,14,33,16.80
2016,06,01,14,34,16.70
2016,06,01,14,35,16.70
2016,06,01,14,36,16.70
2016,06,01,14,37,16.70
2016,06,01,14,38,16.70
2016,06,01,14,39,16.60
2016,06,01,14,40,16.60
2016,06,01,14,41,16.60
2016,06,01,14,42,16.60
2016,06,01,14,43,16.60
2016,06,01,14,44,16.50
2016,06,01,14,45,16.40
2016,06,01,14,46,16.40
2016,06,01,14,47,16.40
2016,06,01,14,48,16.40
2016,06,01,14,49,16.40
2016,06,01,14,50,16.40
2016,06,01,14,51,16.40
2016,06,01,14,52,16.30
2016,06,01,14,53,16.30
2016,06,01,14,54,16.20
2016,06,01,14,55,16.20
2016,06,01,14,56,16.10
2016,06,01,14,57,16.10
2016,06,01,14,58,16.10
2016,06,01,14,59,16.00
2016,06,01,15,00,15.90
2016,06,01,15,01,15.90
2016,06,01,15,02,15.80
2016,06,01,15,03,15.90
2016,06,01,15,04,15.80
2016,06,01,15,05,15.80
2016,06,01,15,06,15.80
2016,06,01,15,07,15.80
2016,06,01,15,08,15.80
2016,06,01,15,09,15.80
2016,06,01,15,10,15.80
2016,06,01,15,11,15.80
2016,06,01,15,12,15.80
2016,06,01,15,13,15.80
2016,06,01,15,14,15.90
2016,06,01,15,15,15.90
2016,06,01,15,16,15.90
2016,06,01,15,17,15.90
2016,06,01,15,18,15.90
2016,06,01,15,19,15.90
2016,06,01,15,20,15.90
2016,06,01,15,21,15.90
2016,06,01,15,22,15.90
2016,06,01,15,23,15.90
2016,06,01,15,24,15.90
2016,06,01,15,25,15.90
2016,06,01,15,26,15.90
2016,06,01,15,27,15.90
2016,06,01,15,28,15.90
2016,06,01,15,29,15.80
2016,06,01,15,30,15.80
2016,06,01,15,31,15.80
2016,06,01,15,32,15.80
2016,06,01,15,33,15.80
2016,06,01,15,34,15.80
2016,06,01,15,35,15.80
2016,06,01,15,36,15.80
2016,06,01,15,37,15.90
2016,06,01,15,38,15.90
2016,06,01,15,39,15.90
2016,06,01,15,40,15.90
2016,06,01,15,41,15.90
2016,06,01,15,42,15.90
2016,06,01,15,43,15.90
2016,06,01,15,44,15.90
2016,06,01,15,45,15.90
2016,06,01,15,46,15.90
2016,06,01,15,47,15.90
2016,06,01,15,48,15.90
2016,06,01,15,49,15.80
2016,06,01,15,50,15.70
2016,06,01,15,51,15.70
2016,06,01,15,52,15.70
2016,06,01,15,53,15.60
2016,06,01,15,54,15.60
2016,06,01,15,55,15.60
2016,06,01,15,56,15.60
2016,06,01,15,57,15.60
2016,06,01,15,58,15.60
2016,06,01,15,59,15.50
2016,06,01,16,00,15.40
2016,06,01,16,01,15.40
2016,06,01,16,02,15.40
2016,06,01,16,03,15.50
2016,06,01,16,04,15.50
2016,06,01,16,05,15.50
2016,06,01,16,06,15.60
2016,06,01,16,07,15.60
2016,06,01,16,08,15.60
2016,06,01,16,09,15.60
2016,06,01,16,10,15.60
2016,06,01,16,11,15.70
2016,06,01,16,12,15.70
2016,06,01,16,13,15.80
2016,06,01,16,14,15.80
2016,06,01,16,15,15.80
2016,06,01,16,16,15.80
2016,06,01,16,17,15.90
2016,06,01,16,18,15.90
2016,06,01,16,19,15.90
2016,06,01,16,20,15.90
2016,06,01,16,21,15.90
2016,06,01,16,22,16.00
2016,06,01,16,23,16.10
2016,06,01,16,24,16.10
2016,06,01,16,25,16.10
2016,06,01,16,26,16.10
2016,06,01,16,27,16.10
2016,06,01,16,28,16.10
2016,06,01,16,29,16.10
2016,06,01,16,30,16.10
2016,06,01,16,31,16.10
2016,06,01,16,32,16.10
2016,06,01,16,33,16.00
2016,06,01,16,34,15.90
2016,06,01,16,35,15.90
2016,06,01,16,36,15.80
2016,06,01,16,37,15.80
2016,06,01,16,38,15.80
2016,06,01,16,39,15.80
2016,06,01,16,40,15.80
2016,06,01,16,41,15.80
2016,06,01,16,42,15.80
2016,06,01,16,43,15.80
2016,06,01,16,44,15.80
2016,06,01,16,45,15.80
2016,06,01,16,46,15.80
2016,06,01,16,47,15.80
2016,06,01,16,48,15.80
2016,06,01,16,49,15.80
2016,06,01,16,50,15.90
2016,06,01,16,51,15.90
2016,06,01,16,52,15.90
2016,06,01,16,53,15.90
2016,06,01,16,54,16.00
2016,06,01,16,55,16.00
2016,06,01,16,56,16.00
2016,06,01,16,57,15.90
2016,06,01,16,58,16.00
2016,06,01,16,59,15.90
2016,06,01,17,00,16.00
2016,06,01,17,01,16.00
2016,06,01,17,02,16.00
2016,06,01,17,03,16.10
2016,06,01,17,04,16.10
2016,06,01,17,05,16.10
2016,06,01,17,06,16.10
2016,06,01,17,07,16.10
2016,06,01,17,08,16.10
2016,06,01,17,09,16.10
2016,06,01,17,10,16.10
2016,06,01,17,11,16.10
2016,06,01,17,12,16.10
2016,06,01,17,13,16.00
2016,06,01,17,14,16.10
2016,06,01,17,15,16.10
2016,06,01,17,16,16.00
2016,06,01,17,17,16.00
2016,06,01,17,18,15.90
2016,06,01,17,19,15.90
2016,06,01,17,20,15.90
2016,06,01,17,21,15.90
2016,06,01,17,22,15.90
2016,06,01,17,23,16.00
2016,06,01,17,24,15.90
2016,06,01,17,25,15.90
2016,06,01,17,26,15.90
2016,06,01,17,27,15.90
2016,06,01,17,28,15.80
2016,06,01,17,29,15.80
2016,06,01,17,30,15.80
2016,06,01,17,31,15.80
2016,06,01,17,32,15.80
2016,06,01,17,33,15.80
2016,06,01,17,34,15.80
2016,06,01,17,35,15.80
2016,06,01,17,36,15.80
2016,06,01,17,37,15.80
2016,06,01,17,38,15.80
2016,06,01,17,39,15.80
2016,06,01,17,40,15.70
2016,06,01,17,41,15.70
2016,06,01,17,42,15.70
2016,06,01,17,43,15.70
2016,06,01,17,44,15.80
2016,06,01,17,45,15.70
2016,06,01,17,46,15.70
2016,06,01,17,47,15.70
2016,06,01,17,48,15.70
2016,06,01,17,49,15.70
2016,06,01,17,50,15.70
2016,06,01,17,51,15.70
2016,06,01,17,52,15.70
2016,06,01,17,53,15.70
2016,06,01,17,54,15.70
2016,06,01,17,55,15.70
2016,06,01,17,56,15.70
2016,06,01,17,57,15.70
2016,06,01,17,58,15.70
2016,06,01,17,59,15.70
2016,06,01,18,00,15.70
2016,06,01,18,01,15.80
2016,06,01,18,02,15.80
2016,06,01,18,03,15.80
2016,06,01,18,04,15.70
2016,06,01,18,05,15.70
2016,06,01,18,06,15.70
2016,06,01,18,07,15.70
2016,06,01,18,08,15.70
2016,06,01,18,09,15.70
2016,06,01,18,10,15.70
2016,06,01,18,11,15.70
2016,06,01,18,12,15.70
2016,06,01,18,13,15.70
2016,06,01,18,14,15.70
2016,06,01,18,15,15.70
2016,06,01,18,16,15.70
2016,06,01,18,17,15.60
2016,06,01,18,18,15.60
2016,06,01,18,19,15.50
2016,06,01,18,20,15.40
2016,06,01,18,21,15.40
2016,06,01,18,22,15.30
2016,06,01,18,23,15.30
2016,06,01,18,24,15.30
2016,06,01,18,25,15.30
2016,06,01,18,26,15.30
2016,06,01,18,27,15.30
2016,06,01,18,28,15.30
2016,06,01,18,29,15.20
2016,06,01,18,30,15.20
2016,06,01,18,31,15.20
2016,06,01,18,32,15.20
2016,06,01,18,33,15.20
2016,06,01,18,34,15.10
2016,06,01,18,35,15.10
2016,06,01,18,36,15.10
2016,06,01,18,37,15.10
2016,06,01,18,38,15.10
2016,06,01,18,39,15.10
2016,06,01,18,40,15.10
2016,06,01,18,41,15.10
2016,06,01,18,42,15.10
2016,06,01,18,43,15.10
2016,06,01,18,44,15.10
2016,06,01,18,45,15.10
2016,06,01,18,46,15.10
2016,06,01,18,47,15.10
2016,06,01,18,48,15.10
2016,06,01,18,49,15.00
2016,06,01,18,50,15.00
2016,06,01,18,51,15.00
2016,06,01,18,52,15.00
2016,06,01,18,53,15.00
2016,06,01,18,54,15.00
2016,06,01,18,55,14.90
2016,06,01,18,56,14.90
2016,06,01,18,57,14.90
2016,06,01,18,58,14.90
2016,06,01,18,59,14.90
2016,06,01,19,00,14.90
2016,06,01,19,01,14.90
2016,06,01,19,02,14.90
2016,06,01,19,03,14.90
2016,06,01,19,04,14.90
2016,06,01,19,05,14.90
2016,06,01,19,06,14.90
2016,06,01,19,07,14.90
2016,06,01,19,08,14.90
2016,06,01,19,09,14.90
2016,06,01,19,10,14.90
2016,06,01,19,11,14.90
2016,06,01,19,12,14.90
2016,06,01,19,13,14.90
2016,06,01,19,14,14.90
2016,06,01,19,15,14.90
2016,06,01,19,16,14.90
2016,06,01,19,17,15.00
2016,06,01,19,18,15.00
2016,06,01,19,19,15.00
2016,06,01,19,20,15.00
2016,06,01,19,21,15.10
2016,06,01,19,22,15.10
2016,06,01,19,23,15.10
2016,06,01,19,24,15.10
2016,06,01,19,25,15.10
2016,06,01,19,26,15.10
2016,06,01,19,27,15.10
2016,06,01,19,28,15.10
2016,06,01,19,29,15.10
2016,06,01,19,30,15.10
2016,06,01,19,31,15.10
2016,06,01,19,32,15.10
2016,06,01,19,33,15.00
2016,06,01,19,34,14.90
2016,06,01,19,35,14.90
2016,06,01,19,36,14.90
2016,06,01,19,37,14.90
2016,06,01,19,38,14.90
2016,06,01,19,39,14.80
2016,06,01,19,40,14.80
2016,06,01,19,41,14.80
2016,06,01,19,42,14.70
2016,06,01,19,43,14.70
2016,06,01,19,44,14.70
2016,06,01,19,45,14.60
2016,06,01,19,46,14.60
2016,06,01,19,47,14.60
2016,06,01,19,48,14.50
2016,06,01,19,49,14.40
2016,06,01,19,50,14.40
2016,06,01,19,51,14.40
2016,06,01,19,52,14.40
2016,06,01,19,53,14.40
2016,06,01,19,54,14.30
2016,06,01,19,55,14.30
2016,06,01,19,56,14.30
2016,06,01,19,57,14.30
2016,06,01,19,58,14.20
2016,06,01,19,59,14.20
2016,06,01,20,00,14.20
2016,06,01,20,01,14.20
2016,06,01,20,02,14.10
2016,06,01,20,03,14.10
2016,06,01,20,04,14.10
2016,06,01,20,05,14.10
2016,06,01,20,06,14.10
2016,06,01,20,07,14.10
2016,06,01,20,08,14.10
2016,06,01,20,09,14.10
2016,06,01,20,10,14.10
2016,06,01,20,11,14.10
2016,06,01,20,12,14.10
2016,06,01,20,13,14.10
2016,06,01,20,14,14.00
2016,06,01,20,15,14.00
2016,06,01,20,16,14.00
2016,06,01,20,17,14.00
2016,06,01,20,18,13.90
2016,06,01,20,19,13.90
2016,06,01,20,20,13.90
2016,06,01,20,21,13.90
2016,06,01,20,22,13.90
2016,06,01,20,23,13.90
2016,06,01,20,24,13.90
2016,06,01,20,25,13.90
2016,06,01,20,26,13.90
2016,06,01,20,27,13.90
2016,06,01,20,28,13.90
2016,06,01,20,29,13.90
2016,06,01,20,30,13.90
2016,06,01,20,31,13.90
2016,06,01,20,32,13.90
2016,06,01,20,33,13.90
2016,06,01,20,34,13.90
2016,06,01,20,35,13.90
2016,06,01,20,36,13.90
2016,06,01,20,37,13.90
2016,06,01,20,38,13.90
2016,06,01,20,39,13.90
2016,06,01,20,40,13.90
2016,06,01,20,41,13.90
2016,06,01,20,42,13.90
2016,06,01,20,43,13.90
2016,06,01,20,44,13.90
2016,06,01,20,45,13.90
2016,06,01,20,46,13.90
2016,06,01,20,47,13.90
2016,06,01,20,48,13.90
2016,06,01,20,49,13.90
2016,06,01,20,50,13.90
2016,06,01,20,51,13.90
2016,06,01,20,52,13.90
2016,06,01,20,53,13.90
2016,06,01,20,54,13.90
2016,06,01,20,55,13.90
2016,06,01,20,56,13.90
2016,06,01,20,57,13.90
2016,06,01,20,58,13.90
2016,06,01,20,59,13.90
2016,06,01,21,00,13.90
2016,06,01,21,01,13.90
2016,06,01,21,02,13.80
2016,06,01,21,03,13.80
2016,06,01,21,04,13.80
2016,06,01,21,05,13.80
2016,06,01,21,06,13.80
2016,06,01,21,07,13.80
2016,06,01,21,08,13.80
2016,06,01,21,09,13.80
2016,06,01,21,10,13.80
2016,06,01,21,11,13.80
2016,06,01,21,12,13.80
2016,06,01,21,13,13.80
2016,06,01,21,14,13.80
2016,06,01,21,15,13.80
2016,06,01,21,16,13.80
2016,06,01,21,17,13.80
2016,06,01,21,18,13.80
2016,06,01,21,19,13.80
2016,06,01,21,20,13.80
2016,06,01,21,21,13.80
2016,06,01,21,22,13.80
2016,06,01,21,23,13.70
2016,06,01,21,24,13.70
2016,06,01,21,25,13.70
2016,06,01,21,26,13.70
2016,06,01,21,27,13.70
2016,06,01,21,28,13.70
2016,06,01,21,29,13.70
2016,06,01,21,30,13.70
2016,06,01,21,31,13.70
2016,06,01,21,32,13.70
2016,06,01,21,33,13.70
2016,06,01,21,34,13.70
2016,06,01,21,35,13.70
2016,06,01,21,36,13.70
2016,06,01,21,37,13.70
2016,06,01,21,38,13.70
2016,06,01,21,39,13.70
2016,06,01,21,40,13.70
2016,06,01,21,41,13.70
2016,06,01,21,42,13.70
2016,06,01,21,43,13.60
2016,06,01,21,44,13.60
2016,06,01,21,45,13.60
2016,06,01,21,46,13.60
2016,06,01,21,47,13.60
2016,06,01,21,48,13.60
2016,06,01,21,49,13.60
2016,06,01,21,50,13.60
2016,06,01,21,51,13.60
2016,06,01,21,52,13.60
2016,06,01,21,53,13.60
2016,06,01,21,54,13.60
2016,06,01,21,55,13.60
2016,06,01,21,56,13.60
2016,06,01,21,57,13.60
2016,06,01,21,58,13.60
2016,06,01,21,59,13.60
2016,06,01,22,00,13.60
2016,06,01,22,01,13.60
2016,06,01,22,02,13.60
2016,06,01,22,03,13.60
2016,06,01,22,04,13.60
2016,06,01,22,05,13.60
2016,06,01,22,06,13.60
2016,06,01,22,07,13.50
2016,06,01,22,08,13.50
2016,06,01,22,09,13.50
2016,06,01,22,10,13.50
2016,06,01,22,11,13.50
2016,06,01,22,12,13.50
2016,06,01,22,13,13.50
2016,06,01,22,14,13.50
2016,06,01,22,15,13.50
2016,06,01,22,16,13.40
2016,06,01,22,17,13.40
2016,06,01,22,18,13.40
2016,06,01,22,19,13.40
2016,06,01,22,20,13.40
2016,06,01,22,21,13.40
2016,06,01,22,22,13.40
2016,06,01,22,23,13.40
2016,06,01,22,24,13.40
2016,06,01,22,25,13.40
2016,06,01,22,26,13.40
2016,06,01,22,27,13.40
2016,06,01,22,28,13.40
2016,06,01,22,29,13.40
2016,06,01,22,30,13.40
2016,06,01,22,31,13.40
2016,06,01,22,32,13.40
2016,06,01,22,33,13.40
2016,06,01,22,34,13.40
2016,06,01,22,35,13.40
2016,06,01,22,36,13.40
2016,06,01,22,37,13.40
2016,06,01,22,38,13.40
2016,06,01,22,39,13.40
2016,06,01,22,40,13.40
2016,06,01,22,41,13.40
2016,06,01,22,42,13.40
2016,06,01,22,43,13.40
2016,06,01,22,44,13.40
2016,06,01,22,45,13.40
2016,06,01,22,46,13.40
2016,06,01,22,47,13.40
2016,06,01,22,48,13.40
2016,06,01,22,49,13.40
2016,06,01,22,50,13.40
2016,06,01,22,51,13.40
2016,06,01,22,52,13.40
2016,06,01,22,53,13.40
2016,06,01,22,54,13.40
2016,06,01,22,55,13.40
2016,06,01,22,56,13.40
2016,06,01,22,57,13.40
2016,06,01,22,58,13.40
2016,06,01,22,59,13.50
2016,06,01,23,00,13.50
2016,06,01,23,01,13.50
2016,06,01,23,02,13.50
2016,06,01,23,03,13.50
2016,06,01,23,04,13.50
2016,06,01,23,05,13.60
2016,06,01,23,06,13.60
2016,06,01,23,07,13.60
2016,06,01,23,08,13.60
2016,06,01,23,09,13.60
2016,06,01,23,10,13.60
2016,06,01,23,11,13.70
2016,06,01,23,12,13.60
2016,06,01,23,13,13.70
2016,06,01,23,14,13.70
2016,06,01,23,15,13.70
2016,06,01,23,16,13.70
2016,06,01,23,17,13.70
2016,06,01,23,18,13.70
2016,06,01,23,19,13.70
2016,06,01,23,20,13.70
2016,06,01,23,21,13.70
2016,06,01,23,22,13.70
2016,06,01,23,23,13.70
2016,06,01,23,24,13.70
2016,06,01,23,25,13.70
2016,06,01,23,26,13.70
2016,06,01,23,27,13.70
2016,06,01,23,28,13.70
2016,06,01,23,29,13.70
2016,06,01,23,30,13.70
2016,06,01,23,31,13.70
2016,06,01,23,32,13.70
2016,06,01,23,33,13.70
2016,06,01,23,34,13.70
2016,06,01,23,35,13.70
2016,06,01,23,36,13.70
2016,06,01,23,37,13.70
2016,06,01,23,38,13.70
2016,06,01,23,39,13.70
2016,06,01,23,40,13.70
2016,06,01,23,41,13.70
2016,06,01,23,42,13.70
2016,06,01,23,43,13.70
2016,06,01,23,44,13.70
2016,06,01,23,45,13.70
2016,06,01,23,46,13.70
2016,06,01,23,47,13.70
2016,06,01,23,48,13.70
2016,06,01,23,49,13.70
2016,06,01,23,50,13.70
2016,06,01,23,51,13.70
2016,06,01,23,52,13.70
2016,06,01,23,53,13.70
2016,06,01,23,54,13.70
2016,06,01,23,55,13.70
2016,06,01,23,56,13.70
2016,06,01,23,57,13.70
2016,06,01,23,58,13.70
2016,06,01,23,59,13.70
